INTELSAT 8 (IS-8) (25522 NORAD) Tracking and Keplerian Element Data

This shows tracking and keplerian element data for the satellite.

Feedback or suggestion? Click here.




ElementValue
Catalog25522
NameINTELSAT 8 (IS-8)
Epoch Orbit1728
Epoch Day198.66695646
Epoch Year2018
RAAN86.6395
Inclination1.9033
Eccentricity0.0292959
Argument of Perigee229.3005
Mean Anonmoly57.5437
Mean Motion0.95186047
Decay Rate-1.9E-06
L11 25522U 98065A 18198.66695646 -.00000190 00000-0 00000-0 0 9990
L22 25522 1.9033 86.6395 0292959 229.3005 57.5437 0.95186047 17287

Live tracking and technical data element details for INTELSAT 8 (IS-8) (NORAD 25522). INTELSAT 8 (IS-8) can be tracked NOW for your location showing map with azimuth and elevation plus other details from your city location.

Track the satellite on the map from your city or location and see movement details for azimuth, elevation, latitude, longitude, range, height, and movement on the map or in text.







IsCatalogInMostPopularTable: catalog: 25522, numindb: 36
Update: records affected: 1



GetName: 25522 INTELSAT 8 (IS-8)

Hit Count: updated at: Sat, 21 Jul 2018 07:46:21 GMT